"2010-12-23 00:00:00",446701,3.776,5.289,6.126,1.12,3.041,99.62622,-1.652,-0.588,71.11,0,109.5,13.59,-0.91,327.3
"2010-12-23 00:00:30",446702,2.371,2.912,6.159,1.034,1.203,99.62622,-1.652,-0.661,71.16,0,109.5,13.59,-0.91,324.9
"2010-12-23 00:01:00",446703,2.531,10.25,6.388,1.197,2.002,99.62622,-1.652,-0.657,71.18,0,109.5,13.59,-0.91,332.2
"2010-12-23 00:01:30",446704,2.505,15.92,7.953,1.292,1.311,99.61971,-1.669,-0.669,71.21,0,109.5,13.6,-0.92,337.9
"2010-12-23 00:02:00",446705,2.256,15.56,6.136,1.127,0.285,99.60925,-1.696,-0.802,71.09,0,109.5,13.6,-0.95,337.6
"2010-12-23 00:02:30",446706,3.207,20.18,7.647,1.403,2.11,99.60811,-1.699,-0.612,71.47,0,109.5,13.6,-0.95,342.2
"2010-12-23 00:03:00",446707,4.052,20.66,5.091,0.895,3.643,99.60271,-1.712,-0.537,71.58,0,109.5,13.6,-0.97,342.7
"2010-12-23 00:03:30",446708,4,19.45,5.42,1.046,3.45,99.60102,-1.717,-0.621,71.5,0,109.5,13.6,-0.97,341.5
"2010-12-23 00:04:00",446709,3.517,22.63,7.01,1.238,2.11,99.60214,-1.714,-0.622,71.62,0,109.5,13.6,-0.97,344.6
"2010-12-23 00:04:30",446710,2.824,20.28,6.642,1.202,0.846,99.60101,-1.717,-0.785,71.54,0,109.5,13.6,-0.97,342.3
"2010-12-23 00:05:00",446711,2.645,19.79,5.7,1.015,0.473,99.60609,-1.704,-0.748,71.65,0,109.4,13.6,-0.96,341.8
"2010-12-23 00:05:30",446712,3.635,22.65,8.32,1.223,2.684,99.60977,-1.694,-0.645,71.76,0,109.5,13.6,-0.95,344.6
"2010-12-23 00:06:00",446713,4.048,26.26,4.827,0.978,3.721,99.61599,-1.678,-0.546,71.89,0,109.4,13.6,-0.93,348.3
"2010-12-23 00:06:30",446714,3.685,23.22,6.576,1.195,3.048,99.62193,-1.663,-0.598,71.84,0,109.5,13.6,-0.92,345.2
"2010-12-23 00:07:00",446715,4.114,26.3,6.098,1.138,3.223,99.62475,-1.656,-0.582,71.86,0,109.5,13.6,-0.91,348.3
"2010-12-23 00:07:30",446716,3.546,22.83,6.248,1.14,1.2,99.6273,-1.65,-0.678,71.75,0,109.5,13.6,-0.90,344.8
"2010-12-23 00:08:00",446717,3.924,25.01,6.991,1.267,1.715,99.63467,-1.631,-0.644,71.79,0,109.5,13.6,-0.88,347.0
"2010-12-23 00:08:30",446718,4.301,27.03,6.534,1.21,2.236,99.644,-1.607,-0.571,71.84,0,109.5,13.6,-0.86,349.0
"2010-12-23 00:09:00",446719,4.832,31.22,3.168,1.036,3.945,99.64371,-1.608,-0.483,71.87,0,109.5,13.6,-0.86,353.2
"2010-12-23 00:09:30",446720,4.751,29.31,6.038,1.079,3.362,99.64316,-1.609,-0.551,71.75,0,109.5,13.6,-0.86,351.3
"2010-12-23 00:10:00",446721,4.949,31.48,6.144,1.084,3.635,99.64854,-1.595,-0.563,71.74,0,109.5,13.6,-0.85,353.5
"2010-12-23 00:10:30",446722,3.66,27.94,6.012,1.109,1.481,99.66695,-1.549,-0.545,71.75,0,109.4,13.6,-0.80,349.9
"2010-12-23 00:11:00",446723,4.755,34.09,5.722,1.069,3.297,99.68053,-1.514,-0.492,71.7,0,109.5,13.6,-0.77,356.1
"2010-12-23 00:11:30",446724,4.712,34.04,5.58,1.113,3.221,99.6842,-1.505,-0.512,71.53,0,109.4,13.6,-0.76,356.0
"2010-12-23 00:12:00",446725,4.426,31.66,7.062,1.179,2.333,99.68703,-1.497,-0.547,71.37,0,109.4,13.6,-0.75,353.7
"2010-12-23 00:12:30",446726,4.494,30.83,6.534,1.139,3.559,99.70771,-1.445,-0.434,71.35,0,109.4,13.6,-0.70,352.8
"2010-12-23 00:13:00",446727,4.768,33.71,5.55,1.114,3.619,99.71875,-1.417,-0.392,71.27,0,109.4,13.6,-0.67,355.7
"2010-12-23 00:13:30",446728,4.673,30.32,6.799,1.122,2.883,99.7196,-1.414,-0.441,71.16,0,109.4,13.6,-0.67,352.3
"2010-12-23 00:14:00",446729,4.863,32.05,5.285,1.145,3.33,99.71988,-1.414,-0.415,71.04,0,109.4,13.6,-0.67,354.0
"2010-12-23 00:14:30",446730,4.376,31.16,5.79,1.221,2.957,99.71988,-1.414,-0.382,70.88,0,109.4,13.6,-0.67,353.2
"2010-12-23 00:15:00",446731,4.209,29.98,6.606,1.222,2.708,99.71988,-1.414,-0.463,70.94,0,109.4,13.6,-0.67,352.0
"2010-12-23 00:15:30",446732,4.339,31.91,6.465,1.188,3.108,99.72045,-1.412,-0.367,70.89,0,109.4,13.6,-0.67,353.9
"2010-12-23 00:16:00",446733,4.371,30.36,6.024,1.16,3.185,99.7213,-1.41,-0.365,70.61,0,109.4,13.6,-0.66,352.4
"2010-12-23 00:16:30",446734,4.142,32.51,6.239,1.263,2.931,99.73064,-1.386,-0.36,70.37,0,109.4,13.6,-0.64,354.5
"2010-12-23 00:17:00",446735,4.235,41.36,6.995,1.433,2.593,99.74224,-1.357,-0.347,69.71,0,109.4,13.61,-0.61,3.4
"2010-12-23 00:17:30",446736,4.785,45.65,6.788,1.208,2.616,99.73998,-1.362,-0.374,68.42,0,109.4,13.61,-0.62,7.7
"2010-12-23 00:18:00",446737,4.03,40.5,6.175,1.186,2.799,99.74706,-1.344,-0.331,68.65,0,109.4,13.61,-0.60,2.5
"2010-12-23 00:18:30",446738,4.49,40.53,7.586,1.295,3.515,99.75952,-1.313,-0.338,68.74,0,109.4,13.61,-0.57,2.5
"2010-12-23 00:19:00",446739,4.929,43.62,6.123,1.266,2.957,99.76037,-1.31,-0.277,68.55,0,109.4,13.61,-0.56,5.6
"2010-12-23 00:19:30",446740,4.798,40.75,6.937,1.139,3.628,99.76263,-1.305,-0.321,68.45,0,109.4,13.61,-0.56,2.8
"2010-12-23 00:20:00",446741,4.938,41.12,5.6,1.229,3.156,99.76179,-1.307,-0.223,68.51,0,109.4,13.61,-0.56,3.1
"2010-12-23 00:20:30",446742,4.661,38.53,7.583,1.19,3.252,99.76207,-1.306,-0.315,68.52,0,109.4,13.61,-0.56,0.5
"2010-12-23 00:21:00",446743,4.115,35.47,6.538,1.406,1.548,99.75754,-1.318,-0.361,68.5,0,109.4,13.61,-0.57,357.5
"2010-12-23 00:21:30",446744,5.122,41.04,5.739,1.148,3.394,99.74195,-1.357,-0.316,68.67,0,109.4,13.61,-0.61,3.0
"2010-12-23 00:22:00",446745,5.151,41.87,5.911,1.122,3.555,99.75555,-1.323,-0.294,68.78,0,109.4,13.61,-0.58,3.9
"2010-12-23 00:22:30",446746,5.04,42.21,5.62,1.163,4.486,99.76207,-1.306,-0.291,68.74,0,109.4,13.61,-0.56,4.2
"2010-12-23 00:23:00",446747,4.069,37.44,4.827,1.148,3.484,99.76405,-1.301,-0.253,68.72,0,109.4,13.61,-0.55,359.4
"2010-12-23 00:23:30",446748,4.423,33.11,6.383,1.156,3.539,99.78926,-1.237,-0.322,68.63,0,109.4,13.61,-0.49,355.1
"2010-12-23 00:24:00",446749,2.597,26.12,6.545,0.487,0.709,99.79605,-1.219,-0.308,68.74,0,109.5,13.61,-0.47,348.1
"2010-12-23 00:24:30",446750,3.657,35.04,7.745,1.329,2.792,99.79974,-1.21,-0.154,68.45,0,109.4,13.61,-0.46,357.0
"2010-12-23 00:25:00",446751,3.992,33.93,6.909,1.085,3.804,99.82381,-1.149,-0.149,68.86,0,109.4,13.62,-0.40,355.9
"2010-12-23 00:25:30",446752,3.84,29.3,7.841,1.23,3.577,99.83005,-1.133,-0.126,68.89,0,109.4,13.62,-0.38,351.3
"2010-12-23 00:26:00",446753,3.878,32.7,5.868,0.925,3.769,99.83005,-1.133,-0.162,68.99,0,109.4,13.62,-0.38,354.7
"2010-12-23 00:26:30",446754,2.578,32.63,6.771,1.121,1.724,99.8306,-1.131,-0.155,68.99,0,109.4,13.62,-0.38,354.6
"2010-12-23 00:27:00",446755,3.695,41.35,5.844,1.09,1.034,99.83202,-1.128,-0.198,68.2,0,109.4,13.61,-0.38,3.3
"2010-12-23 00:27:30",446756,4.093,42.82,7.061,1.184,2.762,99.83005,-1.133,-0.075,67.9,0,109.3,13.61,-0.38,4.8
"2010-12-23 00:28:00",446757,4.786,42.57,5.903,1.101,4.104,99.83005,-1.133,-0.095,67.95,0,109.4,13.61,-0.38,4.6
"2010-12-23 00:28:30",446758,5.164,48.72,2.53,0.861,4.635,99.82835,-1.137,-0.002,68.08,0,109.4,13.61,-0.39,10.7
"2010-12-23 00:29:00",446759,4.608,46.79,5.68,1.132,3.491,99.80455,-1.198,-0.092,68.04,0,109.4,13.61,-0.45,8.8
"2010-12-23 00:29:30",446760,4.586,47.18,5.446,1.029,3.427,99.80625,-1.193,-0.163,68.33,0,109.4,13.6,-0.45,9.2
"2010-12-23 00:30:00",446761,3.399,44.52,5.827,1.182,1.608,99.81163,-1.18,-0.213,68.3,0,109.4,13.61,-0.43,6.5
"2010-12-23 00:30:30",446762,4.284,46.08,7.726,1.226,3.382,99.80653,-1.193,-0.166,68.45,0,109.4,13.61,-0.44,8.1
"2010-12-23 00:31:00",446763,4.243,43.83,6.175,1.132,4.022,99.82976,-1.134,-0.088,69.17,0,109.4,13.61,-0.39,5.8
"2010-12-23 00:31:30",446764,4.627,46.84,6.097,1.071,3.438,99.83005,-1.133,-0.139,68.51,0,109.4,13.61,-0.38,8.8
"2010-12-23 00:32:00",446765,4.192,42.76,5.569,1.161,3.54,99.83005,-1.133,-0.053,68.54,0,109.4,13.61,-0.38,4.8
"2010-12-23 00:32:30",446766,3.144,35.1,6.796,1.177,2.552,99.83005,-1.133,-0.155,68.78,0,109.4,13.62,-0.38,357.1
"2010-12-23 00:33:00",446767,2.743,34.87,6.496,1.097,1.944,99.83486,-1.121,-0.15,68.82,0,109.4,13.62,-0.37,356.9
"2010-12-23 00:33:30",446768,3.416,34.47,6.365,1.054,3.669,99.85327,-1.074,-0.091,68.97,0,109.4,13.62,-0.33,356.5
"2010-12-23 00:34:00",446769,2.507,28.85,6.634,1.143,1.749,99.86403,-1.046,-0.125,69,0,109.4,13.62,-0.30,350.9
"2010-12-23 00:34:30",446770,2.387,36.26,7.91,1.158,1.753,99.86403,-1.046,-0.056,68.88,0,109.4,13.62,-0.30,358.3
"2010-12-23 00:35:00",446771,3.232,35.55,7.545,1.072,3.501,99.86403,-1.046,0.007,68.98,0,109.4,13.62,-0.30,357.5
"2010-12-23 00:35:30",446772,3.134,36.07,7.047,1.195,2.907,99.86403,-1.046,-0.102,68.78,0,109.4,13.62,-0.30,358.1
"2010-12-23 00:36:00",446773,2.217,25.47,7.575,1.158,1.932,99.86403,-1.046,-0.153,68.8,0,109.4,13.62,-0.30,347.5
"2010-12-23 00:36:30",446774,2.779,24.69,6.613,1.214,2.451,99.86403,-1.046,-0.071,68.95,0,109.4,13.62,-0.30,346.7
"2010-12-23 00:37:00",446775,2.785,23.82,6.784,1.262,2.543,99.86403,-1.046,-0.03,69.09,0,109.4,13.62,-0.30,345.8
"2010-12-23 00:37:30",446776,3.372,23.23,5.6,1.242,3.497,99.86403,-1.046,-0.038,69.06,0,109.4,13.62,-0.30,345.2
"2010-12-23 00:38:00",446777,3.106,26.79,7.066,1.168,2.879,99.86403,-1.046,-0.097,68.95,0,109.4,13.62,-0.30,348.8
"2010-12-23 00:38:30",446778,2.657,19.37,10.17,1.238,2.23,99.8663,-1.04,-0.041,69,0,109.4,13.62,-0.29,341.4
"2010-12-23 00:39:00",446779,2.825,10.86,7.971,1.254,3.208,99.86829,-1.035,0.071,69.03,0,109.4,13.62,-0.29,332.9
"2010-12-23 00:39:30",446780,2.168,10.73,7.497,0.93,1.23,99.87424,-1.02,-0.085,68.9,0,109.4,13.62,-0.27,332.7
"2010-12-23 00:40:00",446781,2.419,2.845,9.68,1.013,1.841,99.88074,-1.004,-0.077,68.87,0,109.4,13.63,-0.26,324.8
"2010-12-23 00:40:30",446782,2.32,17.67,12.41,1.182,3.138,99.88613,-0.99,0.076,68.97,0,109.4,13.63,-0.24,339.7
"2010-12-23 00:41:00",446783,1.625,15.82,5.906,0.974,1.134,99.88613,-0.99,-0.025,68.82,0,109.4,13.63,-0.24,337.8
"2010-12-23 00:41:30",446784,2.414,19.05,7.599,1.133,2.876,99.88557,-0.991,-0.061,68.74,0,109.4,13.63,-0.24,341.0
"2010-12-23 00:42:00",446785,1.568,17.33,7.961,1.022,0.901,99.88216,-1,-0.054,68.77,0,109.4,13.63,-0.25,339.3
"2010-12-23 00:42:30",446786,2.581,21.97,8.3,1.17,3.064,99.88216,-1,-0.058,68.77,0,109.4,13.63,-0.25,344.0
"2010-12-23 00:43:00",446787,1.021,14.26,5.897,0.766,0.729,99.88074,-1.004,-0.029,68.77,0,109.4,13.63,-0.26,336.3
"2010-12-23 00:43:30",446788,2.324,22.56,7.969,1.399,2.223,99.88018,-1.005,0.016,68.8,0,109.4,13.62,-0.26,344.6
"2010-12-23 00:44:00",446789,2.845,26.66,7.058,1.279,2.731,99.87593,-1.016,0.111,68.77,0,109.4,13.62,-0.27,348.7
"2010-12-23 00:44:30",446790,1.969,19.96,6.442,1.151,0.688,99.86403,-1.046,-0.068,68.44,0,109.4,13.62,-0.30,342.0
"2010-12-23 00:45:00",446791,1.572,19.09,7.016,1.034,0.75,99.84477,-1.095,-0.1,68.47,0,109.4,13.62,-0.35,341.1
"2010-12-23 00:45:30",446792,2.99,21.2,7.932,1.178,3.123,99.83005,-1.133,0.018,68.84,0,109.4,13.62,-0.38,343.2
"2010-12-23 00:46:00",446793,2.76,21.87,7.153,1.16,2.59,99.8088,-1.187,-0.103,68.79,0,109.4,13.62,-0.44,343.9
"2010-12-23 00:46:30",446794,1.911,14.47,5.299,1.114,1.454,99.79322,-1.227,-0.124,68.92,0,109.4,13.63,-0.48,336.5
"2010-12-23 00:47:00",446795,3.169,14.36,6.869,1.19,3.54,99.76489,-1.299,-0.097,69.21,0,109.4,13.62,-0.55,336.4
"2010-12-23 00:47:30",446796,2.979,3.621,9.54,1.113,3.698,99.77028,-1.285,-0.123,69.58,0,109.4,13.62,-0.54,325.6
"2010-12-23 00:48:00",446797,1.995,1.128,9.04,1.068,0.552,99.77623,-1.27,-0.331,69.28,0,109.4,13.62,-0.52,323.1
"2010-12-23 00:48:30",446798,3.028,2.418,6.292,1.34,2.205,99.76207,-1.306,-0.24,69.41,0,109.4,13.63,-0.56,324.4
"2010-12-23 00:49:00",446799,3.16,3.203,7.883,1.13,2.758,99.76376,-1.302,-0.186,69.68,0,109.4,13.63,-0.55,325.2
"2010-12-23 00:49:30",446800,1.996,3.644,7.2,1.072,1.681,99.76405,-1.301,-0.201,69.61,0,109.4,13.63,-0.55,325.6
"2010-12-23 00:50:00",446801,3.479,5.303,7.105,0.965,3.522,99.76234,-1.305,-0.204,69.7,0,109.4,13.63,-0.56,327.3
"2010-12-23 00:50:30",446802,3.166,2.845,7.415,1.152,2.745,99.75186,-1.332,-0.183,69.81,0,109.4,13.63,-0.58,324.8
"2010-12-23 00:51:00",446803,2.839,1.065,8.37,1.172,1.523,99.73034,-1.387,-0.368,69.8,0,109.4,13.63,-0.64,323.1
"2010-12-23 00:51:30",446804,2.267,0.408,6.521,1.026,0.372,99.72636,-1.397,-0.412,69.86,0,109.4,13.63,-0.65,322.4
"2010-12-23 00:52:00",446805,3.279,5.592,7.03,1.255,3.061,99.70174,-1.46,-0.268,70.26,0,109.4,13.63,-0.71,327.6
"2010-12-23 00:52:30",446806,2.029,358.5,4.329,0.954,0.603,99.69691,-1.472,-0.372,70.34,0,109.4,13.63,-0.73,320.5
"2010-12-23 00:53:00",446807,3.62,3.428,5.21,1.256,3.491,99.69862,-1.468,-0.264,70.54,0,109.4,13.63,-0.72,325.4
"2010-12-23 00:53:30",446808,3.276,4.293,6.891,1.048,3.482,99.72042,-1.412,-0.308,70.58,0,109.4,13.63,-0.67,326.3
"2010-12-23 00:54:00",446809,2.629,358,6.598,1.183,1.626,99.72864,-1.391,-0.475,70.37,0,109.4,13.63,-0.64,320.0
"2010-12-23 00:54:30",446810,2.583,2.652,6.838,1.324,1.538,99.73061,-1.386,-0.379,70.43,0,109.4,13.63,-0.64,324.7
"2010-12-23 00:55:00",446811,2.776,0.115,6.111,1.24,1.431,99.73089,-1.386,-0.351,70.44,0,109.4,13.63,-0.64,322.1
"2010-12-23 00:55:30",446812,2.453,2.31,8.3,1.099,1.151,99.72128,-1.41,-0.377,70.37,0,109.4,13.63,-0.66,324.3
"2010-12-23 00:56:00",446813,3.887,10.06,5.073,0.812,3.437,99.69833,-1.469,-0.316,70.39,0,109.4,13.63,-0.72,332.1
"2010-12-23 00:56:30",446814,2.941,9.67,7.466,1.244,2.515,99.69408,-1.479,-0.333,70.36,0,109.4,13.63,-0.73,331.7
"2010-12-23 00:57:00",446815,3.127,11.71,7.66,1.061,2.831,99.66405,-1.556,-0.368,70.35,0,109.4,13.63,-0.81,333.7
"2010-12-23 00:57:30",446816,2.269,8.53,7.085,1.234,1.158,99.6581,-1.571,-0.553,70.3,0,109.4,13.63,-0.82,330.5
"2010-12-23 00:58:00",446817,2.084,14.49,7.369,1.095,0.421,99.63317,-1.635,-0.552,70.48,0,109.4,13.63,-0.89,336.5
"2010-12-23 00:58:30",446818,1.817,11.24,3.99,0.36,-0.853,99.61589,-1.679,-0.663,70.55,0,109.4,13.67,-0.93,333.2
"2010-12-23 00:59:00",446819,4.586,26.76,4.599,0.668,3.903,99.59521,-1.731,-0.475,70.95,0,109.4,13.64,-0.99,348.8
"2010-12-23 00:59:30",446820,3.771,20.61,6.244,1.049,3.513,99.59521,-1.731,-0.495,71.09,0,109.4,13.63,-0.99,342.6
"2010-12-23 01:00:00",446821,4.184,17.14,7.759,0.754,3.827,99.59606,-1.729,-0.588,71.19,0,109.4,13.63,-0.98,339.1
"2010-12-23 01:00:30",446822,3.478,9.3,6.98,1.326,2.49,99.59096,-1.742,-0.663,71.28,0,109.4,13.63,-1.00,331.3
"2010-12-23 01:01:00",446823,1.957,10.74,4.616,0.232,-0.648,99.58784,-1.75,-0.817,71.2,0,109.4,13.66,-1.00,332.7
"2010-12-23 01:01:30",446824,2.239,8.94,5.749,0.991,0.257,99.59094,-1.742,-0.756,71.36,0,109.4,13.63,-1.00,330.9
"2010-12-23 01:02:00",446825,3.709,19.7,8.01,1.125,2.941,99.59035,-1.744,-0.638,71.47,0,109.4,13.63,-1.00,341.7
"2010-12-23 01:02:30",446826,3.949,10.65,6.133,0.998,3.585,99.58724,-1.752,-0.611,71.56,0,109.4,13.63,-1.01,332.6
"2010-12-23 01:03:00",446827,3.454,10.86,6.873,1.186,2.736,99.5912,-1.742,-0.664,71.51,0,109.4,13.63,-1.00,332.9
"2010-12-23 01:03:30",446828,3.681,5.145,6.168,1.288,3.019,99.60366,-1.71,-0.63,71.63,0,109.4,13.63,-0.96,327.1
"2010-12-23 01:04:00",446829,2.897,355.4,5.262,0.771,-0.014,99.60735,-1.7,-0.854,71.37,0,109.4,13.63,-0.95,317.4
"2010-12-23 01:04:30",446830,4.302,354.6,6.019,1.328,1.441,99.60876,-1.697,-0.692,71.53,0,109.4,13.63,-0.95,316.6
"2010-12-23 01:05:00",446831,4.918,357.1,6.365,1.224,2.62,99.61102,-1.691,-0.586,71.58,0,109.4,13.63,-0.95,319.1
"2010-12-23 01:05:30",446832,5.91,358.3,3.097,0.844,4.54,99.63424,-1.632,-0.513,71.79,0,109.4,13.63,-0.89,320.3
"2010-12-23 01:06:00",446833,5.001,352.8,6.15,1.187,2.799,99.64417,-1.607,-0.585,71.65,0,109.4,13.63,-0.86,314.8
"2010-12-23 01:06:30",446834,5.182,356.3,4.724,1.23,3.569,99.65776,-1.572,-0.532,71.61,0,109.4,13.63,-0.83,318.3
"2010-12-23 01:07:00",446835,5.084,355.6,5.499,1.054,3.179,99.6773,-1.522,-0.625,71.49,0,109.4,13.63,-0.78,317.6
"2010-12-23 01:07:30",446836,4.229,351.5,6.723,1.178,2.22,99.68325,-1.507,-0.514,71.6,0,109.4,13.63,-0.76,313.5
"2010-12-23 01:08:00",446837,3.983,351.5,5.939,1.24,2.762,99.71385,-1.429,-0.398,71.55,0,109.4,13.63,-0.68,313.5
"2010-12-23 01:08:30",446838,3.974,353.1,6.11,1.175,3.141,99.73595,-1.373,-0.432,71.26,0,109.4,13.63,-0.63,315.1
"2010-12-23 01:09:00",446839,3.88,353.7,6.132,1.189,2.736,99.74841,-1.341,-0.379,71.09,0,109.4,13.63,-0.59,315.7
"2010-12-23 01:09:30",446840,4.129,355.3,6.24,1.091,3.569,99.76032,-1.311,-0.342,70.87,0,109.4,13.64,-0.56,317.3
"2010-12-23 01:10:00",446841,4.257,357.5,5.939,1.142,3.61,99.76485,-1.299,-0.377,70.64,0,109.4,13.64,-0.55,319.5
"2010-12-23 01:10:30",446842,3.885,355,6.704,1.274,1.827,99.75947,-1.313,-0.355,70.49,0,109.4,13.63,-0.57,317.0
"2010-12-23 01:11:00",446843,4.241,356.4,6.005,1.187,1.948,99.7487,-1.34,-0.382,70.43,0,109.4,13.64,-0.59,318.4
"2010-12-23 01:11:30",446844,3.843,359.2,6.167,1.225,2.589,99.74757,-1.343,-0.295,70.49,0,109.5,13.64,-0.60,321.2
"2010-12-23 01:12:00",446845,4.316,360,5.923,1.067,3.409,99.7487,-1.34,-0.296,70.44,0,109.4,13.64,-0.59,322.0
"2010-12-23 01:12:30",446846,3.248,359.3,6.733,1.212,2.136,99.7317,-1.384,-0.355,70.29,0,109.5,13.64,-0.64,321.3
"2010-12-23 01:13:00",446847,3.456,355.6,6.92,1.13,1.524,99.7147,-1.427,-0.382,70.23,0,109.4,13.64,-0.68,317.6
"2010-12-23 01:13:30",446848,4.157,358.2,6.843,1.142,2.55,99.71555,-1.425,-0.373,70.26,0,109.4,13.64,-0.68,320.2
"2010-12-23 01:14:00",446849,4.55,0.195,6.212,1.042,3.198,99.71639,-1.423,-0.391,70.31,0,109.4,13.64,-0.68,322.2
"2010-12-23 01:14:30",446850,4.753,358.8,5.133,1.081,3.269,99.71667,-1.422,-0.34,70.43,0,109.4,13.64,-0.67,320.8
"2010-12-23 01:15:00",446851,4.873,357.8,5.276,1.067,3.298,99.71384,-1.429,-0.414,70.36,0,109.4,13.64,-0.68,319.8
"2010-12-23 01:15:30",446852,4.786,356.5,6.037,1.141,3.28,99.70421,-1.454,-0.403,70.43,0,109.4,13.64,-0.71,318.5
"2010-12-23 01:16:00",446853,4.141,354.9,6.858,1.116,2.225,99.69683,-1.472,-0.45,70.43,0,109.4,13.63,-0.73,316.9
"2010-12-23 01:16:30",446854,4.225,355.7,5.909,1.334,1.906,99.69287,-1.482,-0.459,70.4,0,109.4,13.63,-0.74,317.7
"2010-12-23 01:17:00",446855,4.674,0.702,5.707,1.148,3.366,99.69145,-1.486,-0.396,70.5,0,109.4,13.63,-0.74,322.7
"2010-12-23 01:17:30",446856,4.525,357.4,5.972,1.267,2.305,99.69145,-1.486,-0.4,70.52,0,109.4,13.63,-0.74,319.4
"2010-12-23 01:18:00",446857,4.768,0.022,5.482,1.167,3.425,99.6974,-1.471,-0.398,70.53,0,109.3,13.63,-0.72,322.0
"2010-12-23 01:18:30",446858,4.589,360,5.363,1.084,3.241,99.7008,-1.462,-0.448,70.4,0,109.5,13.63,-0.72,322.0
"2010-12-23 01:19:00",446859,3.711,359.4,6.668,1.234,2.21,99.68806,-1.495,-0.408,70.33,0,109.4,13.63,-0.75,321.4
"2010-12-23 01:19:30",446860,4.058,2.9,5.699,1.226,3.191,99.68636,-1.499,-0.386,70.27,0,109.4,13.63,-0.75,324.9
"2010-12-23 01:20:00",446861,3.987,3.512,6.203,1.211,2.394,99.66284,-1.559,-0.533,70.19,0,109.4,13.63,-0.81,325.5
"2010-12-23 01:20:30",446862,3.957,2.465,5.881,1.267,2.537,99.64075,-1.615,-0.558,70.39,0,109.4,13.63,-0.87,324.5
"2010-12-23 01:21:00",446863,3.616,358.7,5.959,1.22,2.169,99.64101,-1.615,-0.516,70.9,0,109.4,13.63,-0.87,320.7
"2010-12-23 01:21:30",446864,3.732,358.5,94.7,1.193,2.967,99.65179,-1.587,-0.564,70.87,0,109.4,13.64,-0.84,320.5
"2010-12-23 01:22:00",446865,3.572,346.6,94.5,1.218,2.04,99.63506,-1.63,-0.606,70.53,0,109.4,13.64,-0.88,308.6
"2010-12-23 01:22:30",446866,3.693,359.7,31.32,1.212,1.991,99.62119,-1.665,-0.591,70.74,0,109.4,13.64,-0.92,321.7
"2010-12-23 01:23:00",446867,4.14,1.877,5.763,1.203,2.993,99.64442,-1.606,-0.503,70.97,0,109.4,13.64,-0.86,323.9
"2010-12-23 01:23:30",446868,3.88,1.616,6.298,1.231,2.68,99.65462,-1.58,-0.52,70.99,0,109.4,13.64,-0.83,323.6
"2010-12-23 01:24:00",446869,4.064,1.513,45.3,1.215,3.084,99.67048,-1.54,-0.504,71.03,0,109.4,13.64,-0.79,323.5
"2010-12-23 01:24:30",446870,4.649,1.281,5.781,1.055,3.594,99.68663,-1.498,-0.49,70.99,0,109.4,13.64,-0.75,323.3
"2010-12-23 01:25:00",446871,3.806,359.4,6.002,1.233,2.877,99.68804,-1.495,-0.446,71.01,0,109.4,13.64,-0.75,321.4
"2010-12-23 01:25:30",446872,3.764,358.1,5.978,1.22,1.567,99.68889,-1.493,-0.587,70.52,0,109.4,13.64,-0.75,320.1
"2010-12-23 01:26:00",446873,4.721,0.08,5.316,1.176,3.124,99.69116,-1.487,-0.424,70.63,0,109.4,13.64,-0.74,322.1
"2010-12-23 01:26:30",446874,4.84,358.9,23.22,1.209,3.13,99.69371,-1.48,-0.456,70.54,0,109.4,13.65,-0.73,320.9
"2010-12-23 01:27:00",446875,4.912,0.03,5.584,1.086,3.462,99.70249,-1.458,-0.41,70.74,0,109.4,13.65,-0.71,322.0
"2010-12-23 01:27:30",446876,4.794,0.116,6.27,1.109,3.45,99.72261,-1.407,-0.452,70.68,0,109.4,13.64,-0.66,322.1
"2010-12-23 01:28:00",446877,4.439,358,6.68,1.133,2.885,99.72318,-1.405,-0.379,70.52,0,109.4,13.64,-0.66,320.0
"2010-12-23 01:28:30",446878,4.443,358.7,6.186,1.205,2.475,99.71807,-1.418,-0.492,69.92,0,109.4,13.64,-0.67,320.7
"2010-12-23 01:29:00",446879,4.777,359.5,5.885,1.001,3.074,99.69966,-1.465,-0.433,69.79,0,109.4,13.65,-0.72,321.5
"2010-12-23 01:29:30",446880,4.455,355.6,5.671,1.252,2.167,99.69372,-1.48,-0.383,70.1,0,109.4,13.64,-0.73,317.6
"2010-12-23 01:30:00",446881,5.067,357.7,5.841,1.091,3.188,99.71184,-1.434,-0.451,70.47,0,109.4,13.64,-0.69,319.7
"2010-12-23 01:30:30",446882,4.419,354.9,6.406,1.202,2.722,99.72346,-1.405,-0.379,70.55,0,109.4,13.64,-0.66,316.9
"2010-12-23 01:31:00",446883,4.77,354.9,5.958,1.132,3.433,99.72318,-1.405,-0.343,70.41,0,109.4,13.65,-0.66,316.9
"2010-12-23 01:31:30",446884,4.578,359.5,4.894,1.28,3.35,99.72289,-1.406,-0.373,70.22,0,109.4,13.64,-0.66,321.5
"2010-12-23 01:32:00",446885,3.211,1.956,6.208,1.204,1.549,99.72346,-1.405,-0.472,69.17,0,109.4,13.65,-0.66,324.0
"2010-12-23 01:32:30",446886,3.298,5.336,6.847,1.273,2.129,99.69512,-1.477,-0.44,68.62,0,109.4,13.64,-0.73,327.3
"2010-12-23 01:33:00",446887,2.979,11.11,6.667,1.113,1.699,99.6804,-1.514,-0.472,68.18,0,109.4,13.64,-0.77,333.1
"2010-12-23 01:33:30",446888,2.96,16.35,6.691,1.192,1.71,99.65177,-1.587,-0.587,68.03,0,109.4,13.63,-0.84,338.4
"2010-12-23 01:34:00",446889,3.137,17.18,5.594,1.163,2.078,99.62712,-1.65,-0.551,68.14,0,109.4,13.63,-0.90,339.2
"2010-12-23 01:34:30",446890,2.741,19.05,6.605,1.15,1.226,99.62146,-1.664,-0.551,68.38,0,109.4,13.64,-0.92,341.0
"2010-12-23 01:35:00",446891,3.944,23.72,6.394,1.197,1.236,99.6124,-1.688,-0.627,68.36,0,109.4,13.64,-0.94,345.7
"2010-12-23 01:35:30",446892,4.419,24.63,5.711,1.11,2.774,99.59681,-1.727,-0.582,68.53,0,109.4,13.64,-0.98,346.6
"2010-12-23 01:36:00",446893,3.861,18.34,6.008,1.029,3.441,99.59397,-1.735,-0.598,68.64,0,109.4,13.63,-0.99,340.3
"2010-12-23 01:36:30",446894,3.404,16,6.748,1.208,2.823,99.59738,-1.726,-0.632,68.47,0,109.4,13.64,-0.98,338.0
"2010-12-23 01:37:00",446895,3.295,20,6.013,1.191,1.868,99.60276,-1.712,-0.645,68.37,0,109.4,13.64,-0.97,342.0
"2010-12-23 01:37:30",446896,3.054,19.17,6.691,1.26,1.367,99.6039,-1.709,-0.725,68.38,0,109.4,13.65,-0.96,341.2
"2010-12-23 01:38:00",446897,3.321,21.59,8.04,1.436,1.489,99.60134,-1.716,-0.663,68.43,0,109.4,13.65,-0.97,343.6
"2010-12-23 01:38:30",446898,4.478,26.27,6.622,1.153,2.359,99.59823,-1.724,-0.62,68.42,0,109.4,13.65,-0.98,348.3
"2010-12-23 01:39:00",446899,4.474,27.71,5.72,1.16,3.327,99.59681,-1.727,-0.615,68.47,0,109.4,13.65,-0.98,349.7
"2010-12-23 01:39:30",446900,4.743,28.24,5.551,1.08,3.254,99.58746,-1.751,-0.646,68.45,0,109.4,13.65,-1.01,350.2
"2010-12-23 01:40:00",446901,4.884,28.87,5.435,1.069,3.266,99.58774,-1.75,-0.691,68.5,0,109.4,13.65,-1.00,350.9
"2010-12-23 01:40:30",446902,4.183,25,6.715,1.177,1.34,99.57669,-1.779,-0.753,68.66,0,109.4,13.65,-1.03,347.0
"2010-12-23 01:41:00",446903,4.422,27.16,6.262,1.117,2.989,99.56168,-1.817,-0.694,68.64,0,109.4,13.65,-1.07,349.2
"2010-12-23 01:41:30",446904,4.535,27.17,5.833,0.952,2.961,99.55997,-1.821,-0.704,68.72,0,109.4,13.65,-1.08,349.2
"2010-12-23 01:42:00",446905,3.957,24.46,5.671,1.142,2.36,99.55628,-1.831,-0.774,68.72,0,109.4,13.65,-1.09,346.5
"2010-12-23 01:42:30",446906,3.664,22.41,6.526,1.18,2.301,99.55374,-1.837,-0.742,68.86,0,109.4,13.65,-1.09,344.4
"2010-12-23 01:43:00",446907,3.818,16.72,8.94,1.089,3.226,99.55374,-1.837,-0.708,69.12,0,109.4,13.65,-1.09,338.7
"2010-12-23 01:43:30",446908,2.287,358.8,4.478,0.634,0.413,99.55261,-1.84,-0.906,68.91,0,109.4,13.65,-1.09,320.8
"2010-12-23 01:44:00",446909,4.043,6.72,6.021,1.071,2.94,99.55572,-1.832,-0.741,68.96,0,109.4,13.65,-1.09,328.7
"2010-12-23 01:44:30",446910,4.308,2.999,7.705,0.823,3.001,99.57896,-1.773,-0.745,69.33,0,109.4,13.65,-1.03,325.0
"2010-12-23 01:45:00",446911,3.499,5.801,6.165,1.211,2.589,99.58689,-1.753,-0.755,69.02,0,109.4,13.65,-1.01,327.8
"2010-12-23 01:45:30",446912,3.534,5.943,5.83,1.164,2.568,99.57584,-1.781,-0.742,68.94,0,109.4,13.65,-1.03,327.9
"2010-12-23 01:46:00",446913,3.598,3.409,7.126,1.083,2.146,99.55714,-1.828,-0.828,69,0,109.4,13.65,-1.08,325.4